Hourly Data Report for April 07, 2020

TORONTO CITY
ONTARIO
Current Station Operator: ECCC - MSC

43°40'00.000" N
79°24'00.000" W
112.50 m
6158355
71508
XTO

Download Data

Hourly Data (April 2020)
Hourly Data Report for April 7, 2020
TIME
LST
Temp Definition
°C
Dew Point Definition
°C
Rel Hum Definition
%
Precip. Amount Definition
mm

Wind Dir Definition
10's deg

Wind Spd Definition
km/h
Visibility Definition
km
Stn Press Definition
kPa
Hmdx Definition


Wind Chill Definition


Weather Definition


00:00 11.0 -4.9 32 0.0       100.23     LegendNANA
01:00 9.4 -4.4 37 0.0       100.17     LegendNANA
02:00 9.1 -4.6 38 0.0       100.11     LegendNANA
03:00 8.3 -5.1 38 0.0       100.09     LegendNANA
04:00 7.8 -4.4 42 0.0       100.06     LegendNANA
05:00 8.0 -4.0 42 0.0       100.05     LegendNANA
06:00 7.9 -4.0 43 0.0       100.06     LegendNANA
07:00 9.2 -2.9 42 0.0       100.09     LegendNANA
08:00 10.4 -2.4 41 0.0       100.07     LegendNANA
09:00 11.6 -3.3 35 0.0       100.04     LegendNANA
10:00 12.4 -3.3 33 0.0       100.02     LegendNANA
11:00 12.5 -3.9 32 0.0       99.88     LegendNANA
12:00 12.9 -3.5 32 0.6       99.80     LegendNANA
13:00 12.6 -4.9 29 0.0       99.72     LegendNANA
14:00 12.9 -4.1 30 0.2       99.57     LegendNANA
15:00 13.0 -3.5 32 0.0       99.44     LegendNANA
16:00 10.9 -4.5 34 0.2       99.32     LegendNANA
17:00 9.0 -2.6 44 0.0       99.25     LegendNANA
18:00 9.3 -1.2 48 0.0       99.37     LegendNANA
19:00 7.5 0.6 61 1.7       99.20     LegendNANA
20:00 6.6 2.3 74 0.7       99.28     LegendNANA
21:00 6.1 3.6 85 2.5       99.24     LegendNANA
22:00 5.4 3.0 84 0.0       99.02     LegendNANA
23:00 5.6 2.9 83 0.0       99.03     LegendNANA

Notes on Data Quality.

Legend

  • E = Estimated
  • M = Missing
  • NA = Not Available*
  • [empty] = Indicates an unobserved value
Date modified: